TimeMDT,TemperatureF,Dew PointF,Humidity,Sea Level PressureIn,VisibilityMPH,Wind Direction,Wind SpeedMPH,Gust SpeedMPH,PrecipitationIn,Events,Conditions,WindDirDegrees,DateUTC
12:13 AM,50.0,44.6,82,29.78,10.0,WSW,18.4,26.5,0.00,Rain,Light Rain,240,2013-09-23 06:13:00
12:43 AM,48.2,44.6,87,29.79,8.0,WSW,16.1,-,0.04,Rain,Light Rain,250,2013-09-23 06:43:00
12:53 AM,50.0,43.0,77,29.70,9.0,WSW,17.3,-,0.06,Rain,Rain,250,2013-09-23 06:53:00
1:53 AM,48.9,42.1,77,29.70,10.0,WSW,11.5,21.9,0.06,,Overcast,250,2013-09-23 07:53:00
2:53 AM,48.0,42.1,80,29.70,10.0,West,8.1,-,N/A,,Mostly Cloudy,260,2013-09-23 08:53:00
3:53 AM,46.9,39.9,77,29.71,10.0,West,12.7,-,N/A,,Clear,260,2013-09-23 09:53:00
4:53 AM,48.9,39.9,71,29.71,10.0,West,15.0,-,N/A,,Clear,280,2013-09-23 10:53:00
5:53 AM,51.1,39.9,66,29.71,10.0,SW,25.3,36.8,N/A,,Clear,230,2013-09-23 11:53:00
6:53 AM,51.1,39.9,66,29.74,10.0,WSW,17.3,-,N/A,,Overcast,240,2013-09-23 12:53:00
7:53 AM,50.0,39.9,68,29.79,10.0,WSW,10.4,-,N/A,,Overcast,240,2013-09-23 13:53:00
8:53 AM,54.0,39.9,59,29.80,10.0,WSW,19.6,-,N/A,,Mostly Cloudy,250,2013-09-23 14:53:00
9:53 AM,57.9,37.0,46,29.83,10.0,WSW,19.6,-,N/A,,Partly Cloudy,250,2013-09-23 15:53:00
10:53 AM,61.0,36.0,39,29.80,10.0,WSW,25.3,32.2,N/A,,Clear,250,2013-09-23 16:53:00
11:53 AM,64.0,33.1,31,29.80,10.0,West,29.9,42.6,N/A,,Scattered Clouds,270,2013-09-23 17:53:00
12:53 PM,66.0,33.1,29,29.77,10.0,West,31.1,43.7,N/A,,Clear,270,2013-09-23 18:53:00
1:53 PM,62.1,28.9,29,29.79,10.0,West,27.6,40.3,N/A,,Clear,280,2013-09-23 19:53:00
2:53 PM,66.0,28.9,25,29.78,10.0,West,23.0,38.0,N/A,,Mostly Cloudy,280,2013-09-23 20:53:00
3:53 PM,66.9,30.9,26,29.77,10.0,West,26.5,36.8,N/A,,Clear,280,2013-09-23 21:53:00
4:53 PM,64.9,28.9,26,29.78,10.0,West,26.5,33.4,N/A,,Clear,280,2013-09-23 22:53:00
5:53 PM,66.0,30.9,27,29.79,10.0,West,21.9,31.1,N/A,,Clear,280,2013-09-23 23:53:00
6:53 PM,61.0,30.9,32,29.81,10.0,West,19.6,25.3,N/A,,Clear,280,2013-09-24 00:53:00
7:53 PM,57.9,32.0,37,29.84,10.0,West,12.7,-,N/A,,Clear,280,2013-09-24 01:53:00
8:53 PM,54.0,30.9,41,29.86,10.0,WSW,10.4,-,N/A,,Clear,250,2013-09-24 02:53:00
9:53 PM,59.0,32.0,36,29.84,10.0,WSW,19.6,29.9,N/A,,Partly Cloudy,250,2013-09-24 03:53:00
10:53 PM,59.0,34.0,39,29.85,10.0,WSW,20.7,-,N/A,,Clear,240,2013-09-24 04:53:00
11:53 PM,52.0,30.9,45,29.88,10.0,NW,11.5,-,N/A,,Clear,310,2013-09-24 05:53:00